Home   Weather   Luleå   Past weeks
Flag for Sweden

Past Weather in Luleå, Sweden — Yesterday and Last 2 Weeks

Now
34 °F

Fog.


Feels Like: 31 °F
Forecast: 42 / 34 °F
Wind: 3 mph from Southwest

Location: Lulea / Kallax

Current Time: Oct 22, 2019 at 5:39:26 am

Latest Report: Oct 22, 2019 at 4:00 am


Visibility: 4 mi

Pressure: 29.67 "Hg

Humidity: 84%

Dew Point: 30 °F

Location of LuleåLocation

Past Weather in Luleå — Graph

°F

Luleå Temperature Yesterday

Maximum temperature yesterday: 31 °F (at 10:00 pm)
Minimum temperature yesterday: 16 °F (at 7:00 am)
Average temperature yesterday: 25 °F

High & Low Weather Summary for the Past Weeks

 TemperatureHumidityPressure
High44 °F (Oct 7, 3:00 pm)98% (Oct 18, 11:00 pm)30.15 "Hg (Oct 18, 11:00 pm)
Low16 °F (Oct 21, 7:00 am)62% (Oct 8, 4:00 pm)29.32 "Hg (Oct 11, 4:00 am)
Average32 °F88%29.78 "Hg
* Reported Oct 7 4:00 am — Oct 22 4:00 am, Luleå. Weather by CustomWeather, © 2019

Note: Actual official high and low records may vary slightly from our data, if they occured in-between our weather recording intervals... More about our weather records

Advertising

Luleå Weather History for the Previous 24 Hours

Scroll right to see more
 ConditionsComfort  
Time TempWeatherWind HumidityBarometerVisibility
4:00 am
Tue, Oct 22
34 °FFog.3 mph84%29.67 "Hg4 mi
3:00 am33 °FOvercast.3 mph82%29.71 "Hg28 mi
2:00 am33 °FPassing clouds.3 mph81%29.74 "Hg28 mi
1:00 am33 °FClear.3 mph81%29.77 "Hg31 mi
12:00 am31 °FPassing clouds.3 mph84%29.80 "Hg31 mi
11:00 pm
Mon, Oct 21
30 °FClear.3 mph82%29.82 "Hg31 mi
10:00 pm31 °FClear.2 mph78%29.84 "Hg31 mi
9:00 pm30 °FOvercast.2 mph79%29.87 "Hg31 mi
8:00 pm30 °FPassing clouds.2 mph78%29.89 "Hg28 mi
7:00 pm31 °FClear.1 mph77%29.91 "Hg31 mi
6:00 pm30 °FPassing clouds.2 mph78%29.92 "Hg28 mi
5:00 pm29 °FClear.1 mph80%29.93 "Hg28 mi
4:00 pm30 °FPartly sunny.1 mph72%29.95 "Hg40 mi
3:00 pm30 °FOvercast.1 mph72%29.95 "Hg40 mi
2:00 pm30 °FOvercast.2 mph72%29.97 "Hg40 mi
1:00 pm29 °FScattered clouds.1 mph71%29.97 "Hg40 mi
12:00 pm26 °FOvercast.2 mph77%29.97 "Hg47 mi
11:00 am24 °FOvercast.1 mph84%29.96 "Hg47 mi
10:00 am22 °FPartly sunny.1 mph87%29.97 "Hg47 mi
9:00 am18 °FPartly sunny.1 mph91%29.96 "Hg40 mi
8:00 am19 °FPassing clouds.2 mph93%29.96 "Hg47 mi
7:00 am16 °FPassing clouds.1 mph92%29.96 "Hg47 mi
6:00 am17 °FClear.No wind93%29.96 "Hg47 mi
5:00 am17 °FClear.No wind93%29.97 "Hg28 mi
Weather by CustomWeather, © 2019

See weather overview